Regional Weather Roundup
Issued by NWS Goodland, KS

Home | Current Version | Previous Version | Text Only | Print | Product List | Glossary Off
Versions: 1 2 3 4 5 6 7 8 9 10 11 12 13 14 15 16 17 18 19 20 21 22 23 24 25 26 27 28 29 30 31 32 33 34 35 36 37 38 39 40 41 42 43 44 45 46 47 48 49 50

000
ASUS43 KGLD 220508
RWRGLD

GOODLAND FORECAST AREA HOURLY WEATHER ROUNDUP
NATIONAL WEATHER SERVICE GOODLAND KS
1100 PM MDT TUE OCT 21 2014

...OFFICIAL OBSERVATIONS...

CITY           SKY/WX    TMP DP  RH WIND       PRES   REMARKS
GOODLAND KS    CLEAR     57  47  69 S12       29.96S
HILL CITY KS   PTCLDY    65  53  65 S10       29.97R
IMPERIAL NEB   PTCLDY    63  46  54 S12       29.91F
MCCOOK NEB     PTCLDY    65  51  60 S15       29.94S
AKRON CO       PTCLDY    58  44  60 S13       29.91F
BURLINGTON CO  CLEAR     60  44  55 S20       29.96S
LIMON CO       PTCLDY    51  42  71 SE9       29.97S
$$

...UNOFFICIAL OBSERVATIONS...

CITY           SKY/WX    TMP DP  RH WIND       PRES   REMARKS
COLBY KS       CLEAR     63  54  72 S14G24    29.97S
GOVE KS          N/A     64  32  30 MISG        N/A
NORTON KS      CLEAR     63  50  63 S12       29.95R
SHARON SPRINGS   N/A     59  49  69 S12         N/A
TRENTON NEB      N/A     62  32  32 S15         N/A
KIT CARSON CO    N/A     57  46  67 N12         N/A
YUMA CO          N/A     59  45  59 S12         N/A
$$



USA.gov is the U.S. government's official web portal to all federal, state and local government web resources and services.